Temp
98 96 96 95 94 94 94 93 93 93 92 92 92 93 94 93 92 92 92 91 90 89 90 90 90 90 90 90 90 90 90 89 89 89 89 89 89 89 88 89 88 87 88 88 88 87 88 88 88 87 87 86 86 85 85 85 84 85 84 84 83 83 83
97 96 96 96 95 94 94 93 93 93 93 92 92 92 94 92 91 92 91 91 90 90 90 91 90 90 90 90 90 90 89 89 89 88 89 89 89 89 89 88 88 88 87 88 89 88 88 88 88 87 86 86 86 85 85 85 84 84 85 84 83 83 83
98 98 97 96 95 95 93 94 93 93 93 94 94 94 93 91 91 91 91 91 90 90 91 91 90 90 90 90 90 90 90 90 89 89 89 90 89 91 90 89 89 89 88 88 87 88 88 88 87 87 86 85 86 85 85 85 84 84 84 84 83 83 82
95 97 97 96 95 95 95 94 93 95 96 96 95 95 93 91 92 92 92 92 90 90 89 91 91 91 91 90 89 89 89 89 89 90 90 90 90 90 89 89 88 89 88 87 87 87 88 88 87 86 85 85 84 85 85 85 85 84 84 83 83 83 83
96 98 98 96 96 95 94 95 95 94 97 99 96 94 94 93 93 93 93 93 94 91 92 92 94 92 91 90 90 90 89 89 89 90 91 91 90 90 89 89 89 89 88 87 85 84 85 86 87 86 85 84 85 85 84 84 84 84 84 83 83 83 83
96 95 95 97 97 96 95 97 98 99 99 99 97 95 96 97 97 97 95 92 93 94 93 92 92 91 90 91 91 90 90 89 90 89 90 90 89 89 89 89 89 89 88 86 86 85 85 86 86 85 85 86 86 85 85 84 84 84 84 83 82 83 83
97 96 95 96 96 96 96 98 101 101 100 100 100 98 98 99 98 98 99 97 96 93 94 94 93 93 90 91 90 89 88 89 89 89 90 90 89 88 88 88 87 87 87 85 83 84 83 84 83 83 83 84 85 84 83 82 82 83 83 82 81 82 82
98 96 96 96 98 98 98 98 100 102 100 99 101 100 98 99 99 100 99 100 99 99 97 98 94 92 90 90 90 89 89 89 89 89 89 89 89 88 88 87 85 84 83 82 82 82 81 80 81 82 82 82 82 82 82 82 81 83 82 81 81 81 82
99 97 97 98 98 99 99 98 98 99 97 96 97 96 97 98 100 99 100 100 100 98 98 99 99 95 91 90 89 89 89 89 89 88 88 88 88 88 88 85 83 83 81 79 80 80 80 79 80 80 80 80 80 80 81 80 81 81 82 81 81 81 81
97 95 95 98 99 100 98 99 98 96 95 94 94 94 95 97 97 99 100 100 101 100 99 99 100 98 92 91 91 91 89 89 88 89 90 89 89 88 85 83 84 82 75 71 74 77 76 76 77 77 77 77 78 78 79 80 80 81 81 81 81 81 80
95 93 93 96 96 96 97 98 96 93 93 91 91 94 94 95 95 98 98 100 100 100 101 100 100 99 96 94 94 92 88 88 89 89 88 88 88 87 86 85 82 78 74 73 73 73 73 73 74 74 74 74 75 76 77 79 80 80 80 80 81 81 81
92 92 90 92 93 95 95 94 94 92 92 91 92 93 92 93 95 97 97 97 100 101 100 100 101 101 98 96 94 91 89 88 88 86 85 84 84 83 83 83 79 77 72 71 72 72 72 72 71 71 71 72 74 75 77 78 79 79 80 81 81 81 81
92 90 89 92 91 93 92 91 91 91 91 92 93 93 93 94 94 96 93 94 98 99 99 98 99 97 97 97 97 91 89 87 82 78 77 82 81 78 77 78 77 75 71 70 70 70 71 73 72 71 71 72 73 74 76 77 79 79 80 81 81 81 80
89 91 91 90 90 90 90 90 90 90 90 91 92 92 93 94 95 94 93 93 95 98 99 98 96 96 94 93 93 90 87 84 81 79 78 81 81 77 74 73 72 74 74 72 71 72 73 73 72 71 71 72 74 75 77 77 79 79 80 80 81 81 80
93 93 91 90 89 88 89 89 89 89 90 91 93 92 92 93 93 92 92 94 93 98 97 96 95 93 93 92 91 86 84 82 81 81 78 75 74 72 72 73 72 73 74 74 74 74 74 73 72 71 72 74 74 75 77 78 79 80 79 78 78 79 79
96 95 93 91 89 90 89 89 89 89 89 90 91 91 92 91 91 92 92 93 95 93 97 95 93 91 91 90 86 83 82 81 80 77 75 73 72 73 73 73 72 73 73 74 74 74 72 72 72 73 73 74 75 76 77 78 79 74 70 73 77 77 77
95 95 94 92 90 90 89 89 90 89 89 89 90 90 90 91 91 92 96 96 96 93 95 96 91 91 90 87 84 82 80 79 78 77 76 77 77 76 76 75 73 73 73 73 73 73 73 72 73 74 75 76 77 77 78 78 78 69 65 67 69 75 77
95 93 94 94 91 90 89 90 89 89 89 91 91 90 91 90 91 92 94 95 95 96 96 94 92 92 89 88 81 80 80 79 77 77 77 77 77 77 77 77 77 76 76 76 75 75 76 76 75 76 77 78 79 80 79 79 70 65 65 65 65 67 74
92 93 92 91 90 89 91 92 91 89 91 93 93 91 92 92 93 90 92 92 93 94 94 94 94 91 89 85 82 82 80 78 77 77 77 77 77 77 78 78 78 78 78 77 77 78 77 77 77 77 78 79 79 80 81 82 69 64 64 64 63 63 66
92 92 92 92 92 91 90 91 91 91 93 92 93 96 95 93 93 92 94 94 93 92 92 91 92 90 86 83 82 81 80 78 77 76 76 77 77 77 78 78 78 78 79 79 78 77 78 78 77 78 77 78 79 79 81 82 67 62 61 62 62 63 66
89 90 90 90 90 92 89 90 90 90 90 93 95 94 93 93 94 93 94 92 91 91 89 89 89 87 84 82 81 81 80 78 77 76 76 77 78 78 78 78 78 78 78 80 80 78 78 78 77 78 78 79 80 79 79 81 63 63 61 60 60 61 67
92 92 91 92 90 88 87 90 89 91 90 92 92 93 96 95 97 96 95 95 91 89 89 88 87 86 83 82 81 80 80 79 78 77 77 77 78 78 78 79 79 79 80 80 81 81 82 80 80 79 79 80 80 80 78 80 61 62 61 60 60 61 69
96 95 95 93 94 91 90 90 91 92 91 92 94 94 95 97 98 97 95 94 91 88 88 87 86 85 83 81 81 81 80 79 77 77 77 78 78 78 79 79 79 80 81 80 81 81 81 80 81 80 80 78 78 78 78 78 65 60 59 59 59 64 75
92 93 95 95 92 91 89 90 93 92 93 92 94 96 97 98 96 92 90 89 89 88 87 85 85 85 82 81 81 80 79 78 77 76 77 78 78 78 80 81 81 81 81 80 81 82 82 83 80 80 79 78 77 79 79 80 67 58 57 57 57 67 76
93 94 93 92 90 90 92 91 91 92 92 93 95 94 94 93 91 90 88 87 87 87 85 85 85 85 84 82 81 79 78 78 77 77 77 77 78 79 79 80 80 81 81 82 82 82 82 81 80 78 77 80 80 74 78 81 72 55 57 56 57 67 75
90 90 91 92 94 92 89 88 89 91 93 93 90 92 91 91 89 87 87 86 87 87 86 86 85 86 86 84 81 80 80 80 78 78 78 78 78 78 78 80 81 81 81 82 83 83 82 81 81 79 80 81 81 80 81 82 81 69 55 55 55 61 74
90 91 91 92 90 86 89 90 92 93 94 90 89 90 90 90 89 86 86 86 87 86 88 87 86 86 85 83 82 81 80 81 81 80 79 79 77 79 80 81 80 80 79 83 83 83 81 82 82 80 80 82 82 82 80 82 83 72 54 54 56 56 62
91 92 92 89 88 91 94 96 92 92 91 88 90 89 90 89 86 85 86 87 87 87 89 86 85 85 84 83 83 82 80 81 81 81 79 78 78 78 78 79 79 79 81 84 82 80 80 79 80 81 80 81 82 80 80 76 69 75 57 56 54 54 56
88 89 89 89 90 93 94 92 91 89 88 89 91 93 92 91 85 85 86 86 87 89 87 86 85 83 82 82 82 81 81 81 79 80 80 79 79 79 78 78 78 79 80 80 80 79 78 78 79 79 79 79 78 79 79 76 71 65 68 54 53 51 53
90 91 93 96 96 94 92 87 85 84 86 87 88 90 89 85 83 84 85 85 88 87 86 85 83 82 81 80 80 81 81 81 80 80 80 79 79 79 77 78 79 79 79 79 79 78 77 78 78 78 78 78 79 79 78 77 77 65 63 62 53 52 50
91 92 93 92 94 91 92 88 84 83 82 82 83 85 87 87 83 81 82 83 84 84 84 83 82 81 80 81 80 80 81 80 80 79 79 79 80 78 78 78 79 78 78 79 78 78 77 78 78 78 78 79 78 79 79 78 78 78 63 58 55 52 50
87 89 90 89 87 89 90 90 89 87 84 83 85 85 85 87 87 81 79 81 82 83 83 82 81 80 80 80 80 80 80 79 79 78 79 79 81 80 79 79 79 79 78 79 79 78 78 78 79 79 78 78 79 79 78 76 78 76 73 63 58 56 52
83 83 83 83 83 86 88 88 88 86 85 82 85 88 87 84 83 81 80 80 82 83 82 81 79 79 79 79 78 79 79 78 80 81 81 79 81 81 80 80 80 79 77 79 80 79 78 78 78 78 79 78 79 79 78 77 76 75 76 72 69 65 60
80 81 82 83 83 84 86 86 85 84 82 81 83 85 87 86 84 82 82 83 83 83 81 79 79 80 79 79 79 78 78 78 76 77 81 81 80 80 82 80 81 81 78 79 79 79 78 77 77 77 78 77 78 77 76 74 75 76 75 74 74 74 76
79 80 81 81 81 82 82 83 82 82 82 81 82 83 81 80 80 82 81 83 85 81 80 79 78 79 80 81 81 79 77 78 78 80 80 79 78 74 73 76 79 78 80 80 77 77 79 79 80 80 83 82 78 77 74 74 73 77 67 70 61 72 79
80 81 81 81 80 80 81 82 82 81 81 81 82 81 81 81 81 83 86 87 84 80 78 77 79 80 81 81 81 79 79 79 82 81 79 78 76 71 64 49 45 58 74 76 59 48 43 50 73 75 81 84 83 74 80 84 80 52 45 46 44 42 44
78 79 80 80 78 78 79 81 81 81 80 81 81 81 81 81 83 82 83 84 82 81 78 79 79 81 83 79 81 78 78 81 81 79 78 79 79 76 73 70 59 41 40 49 50 45 40 40 40 43 48 64 80 62 46 47 45 45 45 42 42 42 43
79 80 82 81 79 78 79 80 80 80 80 81 81 81 81 82 81 80 83 83 84 82 80 81 82 83 84 83 83 78 79 83 80 79 79 79 79 77 77 77 73 66 45 39 43 43 40 39 39 40 44 44 52 65 66 47 42 42 42 41 40 41 40
MSLP
1002.88 1003.44 1003.64 1003.88 1004.48 1004.96 1005.36 1005.88 1006.24 1006.60 1006.84 1007.16 1007.44 1007.64 1007.92 1008.20 1008.48 1008.68 1009.08 1009.40 1009.88 1010.28 1010.28 1010.44 1010.72 1010.92 1011.20 1011.40 1011.64 1011.88 1012.16 1012.52 1012.76 1013.16 1013.40 1013.64 1013.80 1014.16 1014.60 1014.84 1015.20 1015.48 1015.64 1016.00 1016.12 1016.40 1016.52 1016.60 1016.80 1017.00 1017.16 1017.44 1017.68 1017.80 1018.00 1018.12 1018.28 1018.28 1018.40 1018.44 1018.52 1018.56 1018.52
1002.60 1002.84 1003.12 1003.28 1003.68 1004.12 1004.52 1005.00 1005.60 1006.00 1006.32 1006.60 1006.96 1007.16 1007.28 1007.64 1007.96 1008.32 1008.60 1008.92 1009.28 1009.68 1009.88 1010.04 1010.36 1010.60 1010.76 1011.04 1011.20 1011.48 1011.88 1012.12 1012.36 1012.64 1012.92 1013.32 1013.52 1013.84 1014.12 1014.60 1014.96 1015.32 1015.60 1015.76 1015.92 1016.12 1016.40 1016.60 1016.80 1017.08 1017.36 1017.52 1017.68 1017.76 1017.96 1018.12 1018.28 1018.36 1018.36 1018.52 1018.68 1018.72 1018.64
1002.00 1002.04 1002.40 1002.76 1003.08 1003.32 1003.92 1004.40 1004.84 1005.12 1005.52 1005.84 1006.16 1006.56 1006.92 1007.12 1007.32 1007.72 1008.12 1008.52 1008.96 1009.20 1009.32 1009.60 1009.88 1010.16 1010.36 1010.60 1010.96 1011.20 1011.44 1011.76 1012.08 1012.44 1012.84 1013.12 1013.44 1013.68 1013.88 1014.24 1014.64 1015.04 1015.28 1015.52 1015.80 1016.08 1016.20 1016.48 1016.68 1016.96 1017.24 1017.48 1017.60 1017.80 1017.92 1018.08 1018.20 1018.28 1018.32 1018.36 1018.56 1018.60 1018.72
1001.60 1001.56 1001.64 1001.96 1002.36 1002.60 1002.96 1003.36 1003.84 1004.16 1004.44 1004.84 1005.32 1005.72 1006.24 1006.60 1006.76 1007.16 1007.52 1007.92 1008.52 1008.84 1009.20 1009.20 1009.40 1009.72 1009.96 1010.32 1010.64 1010.88 1011.16 1011.40 1011.56 1011.96 1012.36 1012.76 1013.16 1013.48 1013.84 1014.20 1014.56 1014.72 1015.16 1015.52 1015.64 1015.84 1016.00 1016.28 1016.64 1016.88 1017.16 1017.40 1017.60 1017.64 1017.80 1017.96 1018.00 1018.16 1018.20 1018.28 1018.40 1018.40 1018.44
1001.00 1000.92 1001.24 1001.72 1002.08 1002.44 1002.64 1002.88 1003.24 1003.60 1003.80 1004.04 1004.52 1005.00 1005.48 1005.92 1006.32 1006.72 1007.08 1007.32 1007.64 1008.20 1008.40 1008.60 1008.76 1009.08 1009.40 1009.64 1010.00 1010.28 1010.68 1010.96 1011.32 1011.60 1012.08 1012.48 1012.84 1013.24 1013.80 1014.16 1014.48 1014.72 1014.96 1015.32 1015.64 1015.92 1016.12 1016.32 1016.52 1016.80 1017.08 1017.28 1017.48 1017.60 1017.80 1017.88 1017.96 1017.96 1018.04 1018.12 1018.32 1018.28 1018.28
1000.72 1001.04 1001.12 1001.24 1001.52 1001.84 1002.04 1002.04 1002.24 1002.68 1003.16 1003.52 1003.92 1004.60 1004.96 1005.36 1005.72 1006.16 1006.44 1006.92 1007.20 1007.40 1007.80 1008.12 1008.44 1008.72 1009.20 1009.28 1009.56 1009.92 1010.20 1010.60 1010.92 1011.36 1011.80 1012.20 1012.72 1013.28 1013.72 1014.04 1014.36 1014.68 1015.12 1015.44 1015.60 1016.00 1016.24 1016.44 1016.56 1016.76 1017.00 1017.12 1017.32 1017.44 1017.52 1017.72 1017.76 1017.80 1017.92 1017.96 1018.08 1018.12 1018.12
1000.00 1000.40 1000.64 1000.72 1000.80 1001.08 1001.32 1001.32 1001.36 1001.72 1002.16 1002.64 1003.12 1003.80 1004.32 1004.68 1005.16 1005.40 1005.64 1006.20 1006.56 1007.20 1007.44 1007.72 1007.96 1008.24 1008.64 1008.88 1009.28 1009.68 1010.12 1010.44 1010.72 1011.12 1011.40 1011.84 1012.28 1012.92 1013.44 1013.88 1014.32 1014.68 1014.96 1015.36 1015.88 1016.12 1016.52 1016.72 1016.84 1016.96 1017.04 1017.12 1017.16 1017.32 1017.48 1017.64 1017.68 1017.64 1017.72 1017.84 1018.00 1018.00 1018.04
999.16 999.84 999.92 1000.04 1000.16 1000.24 1000.48 1000.68 1000.76 1000.92 1001.52 1002.16 1002.76 1003.24 1003.84 1003.96 1004.36 1004.84 1005.16 1005.20 1005.80 1006.28 1006.72 1007.00 1007.40 1007.76 1008.20 1008.52 1008.88 1009.32 1009.64 1009.84 1010.16 1010.52 1010.92 1011.44 1011.96 1012.60 1013.20 1013.68 1014.36 1014.80 1015.28 1015.80 1016.04 1016.36 1016.80 1017.08 1017.08 1017.08 1017.12 1017.24 1017.36 1017.44 1017.48 1017.56 1017.68 1017.60 1017.60 1017.80 1017.88 1017.88 1017.76
998.64 998.88 999.32 999.40 999.60 999.64 999.84 1000.12 1000.40 1000.64 1001.16 1001.80 1002.20 1002.68 1003.16 1003.56 1003.84 1004.16 1004.48 1004.76 1005.08 1005.64 1005.92 1006.08 1006.52 1007.08 1007.68 1008.12 1008.48 1008.76 1008.96 1009.36 1009.84 1010.28 1010.88 1011.44 1011.84 1012.36 1012.96 1013.80 1014.36 1014.88 1015.68 1016.60 1016.92 1016.64 1016.92 1017.24 1017.28 1017.24 1017.24 1017.32 1017.44 1017.52 1017.52 1017.48 1017.48 1017.40 1017.40 1017.52 1017.60 1017.68 1017.60
998.72 999.20 999.20 999.08 998.96 999.16 999.40 999.60 1000.04 1000.68 1001.28 1001.76 1002.12 1002.56 1002.92 1003.16 1003.44 1003.64 1003.96 1004.24 1004.52 1005.00 1005.24 1005.52 1005.84 1006.40 1007.12 1007.56 1007.84 1008.16 1008.64 1009.20 1009.48 1010.04 1010.56 1011.08 1011.56 1012.16 1013.04 1014.20 1014.76 1015.24 1016.24 1017.48 1018.40 1017.68 1017.36 1017.56 1017.72 1017.56 1017.48 1017.44 1017.44 1017.44 1017.36 1017.24 1017.12 1017.04 1017.04 1017.16 1017.20 1017.24 1017.28
998.72 999.00 999.20 999.16 999.12 999.12 999.28 999.48 1000.00 1000.48 1000.80 1001.44 1001.88 1002.08 1002.44 1002.84 1003.20 1003.40 1003.68 1003.84 1004.12 1004.40 1004.56 1004.88 1005.08 1005.72 1006.36 1006.88 1007.40 1007.88 1008.52 1009.00 1009.36 1010.00 1010.48 1011.12 1011.72 1012.32 1012.64 1013.80 1014.76 1015.64 1016.16 1016.72 1017.44 1017.64 1017.64 1017.64 1017.60 1017.60 1017.44 1017.24 1017.16 1017.16 1017.08 1016.88 1016.68 1016.72 1016.72 1016.72 1016.72 1016.84 1016.88
999.00 999.16 999.44 999.32 999.28 999.28 999.44 999.48 999.76 1000.32 1000.76 1001.16 1001.44 1001.72 1002.16 1002.48 1002.76 1003.08 1003.40 1003.64 1003.56 1003.96 1004.16 1004.36 1004.56 1004.96 1005.72 1006.44 1007.00 1007.76 1008.68 1009.40 1010.00 1010.76 1011.44 1011.84 1011.76 1011.68 1012.12 1013.08 1014.20 1015.16 1015.12 1015.24 1016.08 1016.80 1017.08 1017.00 1016.96 1016.72 1016.52 1016.24 1016.12 1016.20 1016.32 1016.36 1016.36 1016.36 1016.36 1016.44 1016.48 1016.60 1016.64
998.80 999.24 999.48 999.48 999.44 999.28 999.48 999.92 1000.16 1000.24 1000.48 1000.72 1001.04 1001.40 1001.76 1002.12 1002.48 1002.76 1003.20 1003.52 1003.40 1003.44 1003.80 1004.04 1004.32 1004.76 1005.40 1005.56 1006.04 1007.00 1007.96 1008.84 1009.36 1010.08 1011.20 1012.32 1012.32 1011.72 1011.80 1012.84 1013.76 1014.48 1014.92 1014.60 1014.68 1015.04 1015.08 1015.12 1015.28 1015.24 1015.32 1015.24 1015.24 1015.44 1015.72 1015.88 1015.96 1016.04 1016.04 1016.12 1016.20 1016.36 1016.52
998.72 999.04 999.08 999.24 999.36 999.52 999.68 999.72 999.96 1000.28 1000.44 1000.60 1000.92 1001.12 1001.44 1001.68 1001.96 1002.40 1002.84 1003.28 1003.32 1003.32 1003.52 1003.76 1004.16 1004.52 1004.88 1005.36 1006.16 1006.72 1007.40 1008.04 1008.68 1009.32 1009.68 1010.16 1011.48 1011.68 1011.28 1012.00 1012.80 1013.24 1013.60 1013.84 1013.60 1013.36 1013.40 1013.24 1013.12 1013.20 1013.76 1014.16 1014.44 1014.68 1014.88 1015.12 1015.36 1015.60 1015.68 1015.76 1015.92 1016.12 1016.32
998.48 998.68 998.96 999.28 999.36 999.28 999.64 999.92 999.84 999.96 1000.16 1000.32 1000.52 1000.96 1001.24 1001.48 1001.76 1002.08 1002.48 1002.72 1003.04 1003.08 1003.24 1003.44 1004.00 1004.48 1005.04 1005.72 1006.40 1007.40 1007.88 1008.48 1009.08 1009.72 1010.40 1011.28 1011.96 1012.48 1012.60 1012.12 1011.84 1012.04 1012.08 1011.96 1011.68 1011.64 1011.72 1011.56 1011.96 1012.80 1013.36 1013.68 1013.92 1014.24 1014.48 1014.64 1014.80 1015.00 1015.32 1015.60 1015.84 1015.96 1016.16
997.96 998.08 998.40 998.60 998.92 998.88 998.96 999.16 999.48 999.72 999.92 1000.20 1000.36 1000.68 1000.96 1001.28 1001.56 1001.84 1002.28 1002.56 1002.64 1002.88 1002.84 1003.24 1003.96 1004.56 1005.20 1005.84 1006.68 1007.32 1007.96 1008.52 1009.16 1009.72 1010.12 1010.56 1010.92 1010.64 1010.44 1010.72 1010.60 1010.36 1010.28 1010.52 1010.92 1011.32 1011.76 1012.12 1012.40 1012.68 1013.12 1013.76 1014.24 1014.52 1014.60 1014.60 1014.48 1014.64 1014.92 1015.12 1015.48 1015.80 1015.96
997.48 997.52 997.64 997.80 998.08 998.52 998.56 998.72 998.92 999.32 999.68 999.88 1000.04 1000.24 1000.48 1000.84 1001.12 1001.40 1001.60 1001.92 1002.12 1002.64 1002.60 1003.00 1003.84 1004.36 1004.96 1005.80 1006.48 1007.04 1007.60 1008.12 1008.52 1008.88 1009.32 1009.44 1009.72 1010.16 1010.12 1009.88 1009.60 1009.72 1010.12 1010.60 1010.92 1011.36 1011.64 1011.80 1012.00 1012.60 1013.40 1014.04 1014.32 1014.48 1014.36 1014.20 1014.16 1014.40 1014.72 1014.88 1015.16 1015.44 1015.60
997.20 997.32 997.20 997.28 997.48 997.88 998.40 998.44 998.68 998.92 999.08 999.24 999.48 999.84 1000.20 1000.64 1000.88 1001.20 1001.40 1001.44 1001.72 1001.96 1002.24 1002.80 1003.48 1004.16 1004.68 1005.28 1006.48 1006.76 1007.16 1007.56 1007.92 1008.16 1008.44 1008.68 1009.08 1009.24 1009.16 1009.12 1009.20 1009.32 1009.60 1009.92 1010.32 1010.48 1010.84 1011.60 1012.08 1012.52 1012.88 1013.32 1013.68 1013.84 1013.92 1013.84 1013.80 1014.16 1014.44 1014.64 1014.88 1015.16 1015.44
997.36 997.32 997.40 997.52 997.84 998.08 998.04 998.00 998.08 998.36 998.56 998.84 999.24 999.64 999.76 1000.04 1000.48 1001.04 1001.04 1001.32 1001.44 1001.48 1002.04 1002.72 1003.12 1003.80 1004.44 1005.20 1006.16 1006.52 1006.84 1007.24 1007.68 1008.08 1008.36 1008.56 1008.68 1008.64 1008.76 1009.04 1009.24 1009.20 1009.28 1009.48 1009.32 1009.80 1010.68 1011.20 1011.80 1012.24 1012.52 1012.76 1013.20 1013.40 1013.48 1013.44 1013.48 1013.88 1014.16 1014.44 1014.72 1015.20 1015.48
997.20 997.20 997.20 997.32 997.28 997.40 997.60 997.72 997.80 998.00 998.20 998.48 998.76 998.92 999.16 999.52 1000.12 1000.48 1000.52 1000.84 1001.20 1001.64 1002.00 1002.56 1002.92 1003.56 1004.36 1005.16 1005.80 1006.16 1006.44 1006.92 1007.44 1007.92 1008.12 1008.24 1008.40 1008.52 1008.76 1008.96 1009.08 1009.04 1009.04 1009.16 1009.52 1009.96 1010.40 1010.96 1011.48 1011.76 1012.16 1012.32 1012.76 1013.12 1013.16 1013.16 1013.48 1013.84 1014.08 1014.40 1014.72 1014.80 1014.96
997.28 997.28 997.36 997.32 997.44 997.16 997.40 997.40 997.56 997.76 998.00 998.12 998.12 998.48 998.96 999.48 999.72 1000.12 1000.48 1000.84 1001.36 1001.64 1002.16 1002.52 1003.00 1003.68 1004.40 1005.08 1005.48 1005.80 1006.16 1006.68 1007.20 1007.68 1007.96 1008.04 1008.12 1008.28 1008.48 1008.60 1008.76 1009.08 1009.20 1009.28 1009.48 1009.80 1010.24 1010.64 1011.16 1011.36 1011.76 1012.00 1012.32 1012.80 1013.00 1012.92 1013.24 1013.52 1013.88 1014.36 1014.48 1014.56 1014.64
996.60 996.64 996.88 996.64 996.96 997.24 997.48 997.28 997.28 997.36 997.60 997.36 998.00 998.32 998.40 998.96 999.08 999.68 1000.32 1000.48 1001.20 1001.64 1002.00 1002.44 1002.92 1003.48 1004.24 1004.88 1005.28 1005.60 1005.88 1006.40 1007.00 1007.44 1007.68 1007.80 1007.96 1008.24 1008.40 1008.48 1008.64 1008.96 1009.12 1009.32 1009.44 1009.60 1009.88 1010.32 1010.56 1011.08 1011.56 1011.80 1012.00 1012.44 1012.80 1012.64 1013.16 1013.48 1013.88 1014.08 1014.04 1014.28 1014.48
995.52 995.64 995.64 995.80 995.88 996.36 996.36 996.36 996.76 997.08 997.20 997.36 997.36 997.64 997.92 998.16 998.52 999.16 999.80 1000.48 1001.08 1001.52 1001.92 1002.32 1002.92 1003.48 1004.08 1004.56 1004.88 1005.36 1005.76 1006.16 1006.76 1007.20 1007.40 1007.60 1007.92 1008.16 1008.28 1008.52 1008.76 1008.88 1009.00 1009.48 1009.56 1009.80 1010.00 1010.20 1010.48 1010.76 1011.28 1011.76 1011.88 1012.24 1012.48 1012.56 1012.84 1013.28 1013.60 1013.76 1013.96 1014.16 1013.72
995.68 995.32 995.08 995.20 995.60 996.12 996.28 996.32 996.12 996.36 996.96 997.40 997.16 996.88 997.00 997.44 998.12 999.08 999.84 1000.52 1000.96 1001.48 1002.04 1002.56 1003.04 1003.32 1003.92 1004.44 1004.72 1005.20 1005.64 1006.12 1006.56 1007.04 1007.40 1007.60 1007.80 1007.92 1008.08 1008.32 1008.52 1008.76 1008.80 1009.24 1009.48 1009.68 1009.76 1009.92 1010.36 1010.64 1011.12 1011.52 1011.56 1011.60 1011.96 1012.04 1012.48 1013.00 1013.52 1013.68 1013.48 1013.04 1013.04
995.40 995.24 995.16 995.36 995.72 996.04 996.00 996.04 996.12 996.24 996.68 997.16 997.16 997.04 997.08 997.56 998.28 999.20 1000.12 1000.56 1000.96 1001.44 1002.16 1002.64 1003.04 1003.28 1003.72 1004.20 1004.56 1005.12 1005.52 1006.00 1006.52 1006.92 1007.28 1007.56 1007.68 1007.76 1008.08 1008.32 1008.52 1008.60 1008.80 1009.04 1009.24 1009.40 1009.48 1009.76 1010.28 1010.80 1011.08 1011.00 1011.04 1011.28 1011.52 1011.60 1012.08 1012.76 1012.96 1012.76 1012.72 1012.72 1012.92
995.56 995.48 995.40 995.16 995.12 995.28 995.64 995.84 996.36 996.68 996.92 997.20 997.36 997.16 997.52 998.00 998.72 999.52 1000.20 1000.68 1000.84 1001.48 1001.96 1002.36 1002.80 1002.96 1003.16 1003.72 1004.48 1004.92 1005.36 1005.72 1006.32 1006.68 1007.00 1007.24 1007.32 1007.56 1007.84 1008.04 1008.28 1008.56 1008.88 1009.04 1009.04 1009.24 1009.44 1009.72 1010.00 1010.56 1010.64 1010.56 1010.60 1010.96 1011.12 1011.16 1011.36 1011.88 1012.20 1012.44 1012.68 1012.72 1012.76
995.28 995.04 995.28 995.28 995.56 995.40 995.72 995.96 996.12 996.52 996.84 997.32 997.44 997.56 997.84 998.28 999.04 999.88 1000.32 1000.60 1000.88 1001.20 1001.24 1001.64 1002.20 1002.60 1003.04 1003.56 1004.20 1004.72 1005.08 1005.40 1005.88 1006.36 1006.72 1006.92 1007.24 1007.36 1007.60 1007.80 1008.20 1008.52 1008.84 1008.96 1009.00 1009.20 1009.56 1009.68 1009.84 1010.12 1010.28 1010.12 1010.24 1010.60 1010.84 1010.84 1010.92 1011.56 1012.52 1012.92 1012.84 1012.84 1012.80
995.16 995.16 995.12 995.32 995.44 995.28 995.40 995.72 996.28 996.56 997.08 997.32 997.44 997.64 998.00 998.48 999.40 999.96 1000.32 1000.60 1000.96 1000.80 1000.44 1001.00 1001.68 1002.24 1002.76 1003.32 1003.84 1004.52 1005.12 1005.44 1005.76 1006.12 1006.56 1006.88 1007.20 1007.48 1007.76 1007.92 1008.20 1008.52 1008.68 1008.64 1008.88 1009.32 1009.64 1009.88 1009.80 1009.80 1009.92 1010.00 1010.16 1010.60 1010.68 1010.96 1011.40 1011.64 1012.28 1012.44 1012.68 1012.84 1012.72
995.68 995.76 995.92 995.92 995.92 995.76 995.88 996.56 997.04 997.48 997.68 997.56 997.52 997.52 997.76 998.28 999.32 999.72 999.96 1000.36 1000.40 1000.08 1000.28 1000.56 1001.16 1001.80 1002.48 1003.00 1003.52 1004.08 1004.60 1005.16 1005.64 1006.00 1006.24 1006.64 1006.96 1007.36 1007.80 1008.00 1008.32 1008.52 1008.64 1008.76 1008.96 1009.36 1009.84 1009.88 1009.88 1010.00 1010.16 1010.36 1010.64 1010.64 1010.76 1011.00 1011.36 1011.60 1011.92 1012.32 1012.44 1012.56 1012.64
995.48 995.60 995.68 995.64 995.80 996.16 996.48 997.36 997.76 998.12 998.16 998.12 998.08 997.96 998.04 998.60 999.24 999.40 999.68 1000.20 999.88 1000.16 1000.56 1000.88 1001.32 1001.84 1002.40 1002.92 1003.48 1003.96 1004.44 1004.92 1005.32 1005.68 1005.88 1006.32 1006.76 1007.24 1007.72 1008.00 1008.20 1008.48 1008.64 1008.84 1009.12 1009.52 1009.84 1009.88 1009.92 1010.00 1010.16 1010.40 1010.44 1010.48 1010.60 1010.68 1010.84 1011.52 1011.72 1012.00 1012.28 1012.60 1012.76
995.96 996.04 996.16 996.48 996.64 996.68 996.96 997.72 998.36 998.60 998.84 998.88 998.96 998.88 998.92 998.92 999.24 999.52 999.92 1000.16 1000.32 1000.88 1001.24 1001.52 1001.76 1002.04 1002.48 1002.92 1003.48 1004.04 1004.44 1004.92 1005.36 1005.68 1005.92 1006.24 1006.64 1007.28 1007.68 1008.00 1008.12 1008.52 1008.60 1008.80 1009.08 1009.28 1009.52 1009.56 1009.60 1009.88 1009.92 1009.96 1010.12 1010.24 1010.40 1010.44 1010.68 1010.96 1011.68 1011.96 1012.24 1012.32 1012.52
996.88 996.80 996.96 997.20 997.56 997.48 997.44 997.72 998.12 998.64 999.20 999.32 999.12 999.20 999.20 999.12 999.24 1000.08 1000.36 1000.00 1000.28 1001.04 1001.64 1001.80 1001.84 1002.08 1002.52 1002.88 1003.40 1003.80 1004.20 1004.80 1005.36 1005.68 1005.88 1006.16 1006.48 1007.00 1007.40 1007.76 1007.96 1008.20 1008.48 1008.64 1008.80 1008.96 1009.12 1009.24 1009.20 1009.44 1009.56 1009.80 1009.84 1010.08 1010.24 1010.44 1010.68 1010.88 1011.24 1011.96 1012.36 1012.68 1012.96
997.84 997.96 998.16 998.40 998.40 998.08 998.08 998.28 998.72 999.08 999.36 999.84 999.44 999.28 999.40 999.60 999.64 1000.00 1000.28 1000.52 1000.48 1001.00 1001.64 1002.00 1002.12 1002.44 1002.84 1003.40 1003.80 1004.04 1004.32 1004.84 1005.28 1005.64 1005.92 1006.28 1006.56 1006.96 1007.28 1007.52 1007.68 1007.92 1008.24 1008.32 1008.48 1008.76 1009.00 1009.00 1009.08 1009.24 1009.32 1009.56 1009.64 1009.88 1010.04 1010.36 1010.68 1010.88 1010.96 1011.60 1012.20 1012.56 1013.24
998.72 998.72 998.64 998.56 998.60 998.52 998.56 998.84 999.24 999.60 999.84 1000.16 999.92 999.68 999.60 999.76 1000.00 1000.16 1000.24 1000.48 1000.76 1001.24 1001.68 1001.92 1002.08 1002.48 1003.04 1003.52 1003.96 1004.32 1004.56 1004.84 1005.28 1005.60 1005.84 1006.32 1006.60 1006.96 1007.16 1007.28 1007.32 1007.60 1008.04 1008.12 1008.28 1008.56 1008.84 1008.96 1008.96 1009.12 1009.16 1009.48 1009.60 1009.80 1010.20 1010.60 1010.68 1010.84 1011.12 1011.36 1011.52 1011.40 1011.32
999.12 999.12 999.04 999.08 999.12 998.96 999.24 999.40 999.72 999.96 1000.16 1000.40 1000.24 1000.24 1000.44 1000.52 1000.52 1000.48 1000.80 1000.80 1000.84 1001.32 1001.60 1001.92 1002.28 1002.60 1002.96 1003.28 1003.72 1004.32 1004.60 1004.84 1005.40 1005.36 1005.80 1006.40 1006.72 1007.28 1007.56 1007.48 1007.28 1007.48 1007.60 1007.84 1008.12 1008.44 1008.44 1008.60 1008.68 1008.64 1008.64 1008.88 1009.32 1009.76 1010.28 1010.64 1010.72 1010.44 1009.96 1009.92 1010.08 1010.20 1010.56
999.36 999.32 999.40 999.32 999.32 999.52 999.56 999.64 999.80 1000.16 1000.44 1000.60 1000.56 1000.68 1000.80 1000.88 1000.88 1000.68 1000.52 1000.44 1000.84 1001.16 1001.68 1002.04 1002.32 1002.64 1002.96 1003.24 1003.76 1004.24 1004.64 1004.92 1005.20 1005.40 1005.92 1006.36 1006.92 1007.60 1008.40 1009.08 1008.68 1008.44 1008.32 1008.36 1008.96 1009.20 1009.40 1009.44 1008.92 1008.84 1008.68 1008.40 1008.44 1009.28 1009.56 1009.32 1009.52 1009.88 1010.20 1010.48 1010.64 1010.84 1011.04
999.92 999.76 999.76 999.72 999.92 1000.12 1000.16 1000.08 1000.16 1000.40 1000.68 1000.76 1000.76 1000.92 1000.96 1000.96 1000.84 1000.84 1000.76 1000.60 1000.80 1001.12 1001.60 1001.80 1002.12 1002.28 1002.64 1003.24 1003.52 1004.08 1004.52 1004.52 1005.04 1005.48 1005.84 1005.96 1006.24 1006.68 1007.40 1008.08 1009.00 1009.52 1009.52 1009.36 1009.48 1009.48 1009.48 1009.52 1009.60 1009.44 1009.48 1009.44 1009.24 1009.84 1010.24 1010.24 1010.28 1010.32 1010.64 1010.84 1010.96 1011.16 1011.48
1000.08 1000.00 999.80 999.92 1000.24 1000.44 1000.44 1000.52 1000.56 1000.72 1000.88 1000.76 1000.76 1000.92 1000.96 1001.04 1001.04 1001.08 1000.92 1000.80 1000.80 1001.08 1001.48 1001.64 1001.80 1001.96 1002.24 1002.56 1003.16 1003.96 1004.12 1004.28 1004.80 1005.24 1005.60 1005.68 1005.92 1006.32 1006.68 1007.04 1007.80 1008.88 1009.80 1010.04 1009.80 1009.88 1009.84 1009.68 1009.60 1009.56 1009.52 1009.60 1009.72 1009.52 1010.28 1010.96 1010.96 1010.80 1010.92 1011.12 1011.28 1011.56 1011.88
Wind_Speed
18 20 20 19 19 20 20 19 19 18 18 18 18 19 20 18 18 17 16 16 18 18 17 17 16 15 16 14 15 14 13 13 12 12 12 11 10 9 9 8 7 6 5 5 5 5 5 6 6 6 5 5 6 6 5 5 4 4 4 4 4 3 4
16 18 19 20 21 21 21 20 20 18 18 18 17 19 19 19 17 18 17 17 17 18 17 17 16 16 15 14 13 15 15 14 13 10 11 10 9 9 8 8 7 6 6 5 4 4 5 6 6 5 5 6 6 6 6 5 5 5 4 5 5 4 5
17 17 18 19 19 19 21 20 20 20 20 19 19 19 19 18 18 19 18 17 18 17 16 17 16 16 15 14 14 15 15 15 14 14 14 12 12 12 10 9 7 7 6 6 5 5 6 6 5 5 6 6 6 6 5 6 5 5 5 4 5 5 5
16 17 18 19 19 19 22 22 23 22 21 22 21 21 20 20 18 17 17 17 17 17 18 17 16 16 15 15 15 15 15 15 15 14 14 13 12 11 10 9 8 7 6 6 6 6 5 6 6 6 7 6 6 6 6 6 6 6 6 5 5 6 6
17 18 17 18 20 19 20 20 21 21 23 23 21 19 19 18 19 17 17 18 18 19 18 18 16 15 13 14 12 12 14 16 15 13 12 12 11 10 10 10 9 8 6 6 6 6 6 7 6 6 7 6 6 6 6 6 6 6 6 6 5 5 6
15 16 16 18 18 19 20 22 23 24 23 24 23 21 19 20 19 21 20 18 18 18 17 17 17 15 14 14 13 12 13 14 13 13 12 11 11 11 10 10 8 7 7 8 7 6 6 6 6 6 6 6 6 6 6 7 7 6 6 6 5 5 6
13 15 16 17 18 19 21 22 24 25 23 22 21 19 19 19 21 21 20 20 20 20 20 19 18 16 14 13 14 14 15 14 14 15 13 14 14 12 11 9 8 7 6 6 5 5 4 4 4 5 5 5 5 5 5 6 6 6 6 6 6 5 6
13 14 17 19 20 20 20 20 22 24 21 20 20 21 21 20 20 21 21 20 20 20 19 20 18 16 14 14 14 16 15 16 16 15 14 15 13 12 11 9 8 7 6 6 6 5 4 3 3 3 4 5 5 6 6 6 6 6 6 6 6 7 5
12 14 16 18 19 19 19 19 19 20 21 21 22 20 21 20 20 20 21 20 18 20 21 20 18 16 15 15 15 17 17 16 15 14 15 15 14 13 12 10 9 8 8 8 7 7 5 2 1 2 3 4 5 6 7 7 7 7 7 7 7 7 7
10 11 13 15 16 16 16 18 17 16 19 19 19 19 20 18 18 18 18 19 18 20 20 20 19 17 17 16 17 17 17 17 15 16 17 16 12 14 13 9 8 9 13 11 6 4 5 5 4 2 1 3 4 6 8 9 9 9 9 9 9 8 8
8 10 11 14 15 16 16 17 18 16 17 17 17 18 17 17 17 17 17 17 18 17 18 18 18 18 18 18 18 17 16 17 15 16 15 14 14 16 16 13 11 12 11 10 4 4 2 2 1 3 5 6 7 8 10 11 10 10 10 9 9 9 8
7 8 9 12 13 14 16 15 15 15 16 16 18 18 17 16 17 17 16 16 16 16 16 17 17 19 17 15 15 14 15 12 10 9 9 12 15 18 16 16 14 10 10 12 7 4 3 8 8 10 11 11 11 11 11 11 11 11 11 10 9 9 8
6 7 8 11 13 12 12 13 16 18 17 16 18 17 16 17 17 16 15 16 16 15 15 15 15 15 16 17 17 14 15 16 15 15 12 8 9 12 16 16 14 11 10 12 13 15 14 12 14 14 14 14 13 12 12 12 12 11 11 10 10 9 9
8 8 9 10 12 14 17 17 16 16 17 17 16 16 15 16 16 15 15 15 15 15 15 13 14 14 15 14 12 12 16 15 12 15 16 18 13 10 12 14 16 16 14 13 16 17 16 17 18 17 15 14 12 12 12 13 12 12 11 9 9 9 9
11 11 11 13 14 15 15 15 16 17 17 17 17 17 17 15 15 14 13 14 14 14 15 13 13 14 13 7 6 10 12 12 13 13 14 13 12 11 11 14 16 15 15 18 18 16 18 18 14 10 10 12 12 12 11 11 11 10 9 8 9 9 9
11 12 13 14 15 16 17 17 15 15 16 16 18 18 17 15 15 15 15 15 15 15 14 12 12 11 9 9 11 14 14 15 16 16 15 16 14 15 16 14 18 19 18 18 18 17 14 10 10 11 13 11 10 9 9 9 8 8 12 9 7 7 7
11 11 13 14 15 15 15 16 16 16 17 17 18 18 17 15 15 15 16 15 14 13 12 12 11 12 11 12 13 16 16 16 17 18 19 19 18 17 19 19 16 16 17 15 13 13 15 15 14 9 6 8 9 10 9 8 7 11 11 11 10 6 6
10 11 12 13 14 15 14 16 17 19 20 20 19 18 16 14 14 14 14 14 13 13 12 12 12 12 11 12 14 15 16 16 18 19 19 19 18 18 19 19 17 16 17 18 19 17 16 13 11 9 11 10 12 14 12 10 10 13 12 12 12 11 7
6 7 6 7 9 12 14 16 17 16 16 15 15 15 15 14 13 13 12 11 10 10 11 11 11 12 12 14 15 15 16 16 17 18 18 18 18 17 16 15 13 13 15 16 17 15 14 15 12 11 12 12 13 12 12 11 12 14 13 12 9 5 4
7 6 6 7 9 12 13 12 12 13 14 13 13 13 12 11 11 10 11 11 11 11 11 12 11 12 13 14 16 16 16 17 17 18 18 18 17 16 14 14 14 13 12 12 11 11 12 11 12 11 12 12 13 11 9 9 9 9 9 9 10 12 9
7 7 7 8 9 11 13 14 13 13 14 14 14 13 12 12 11 12 12 12 13 12 12 12 13 13 14 15 17 16 16 17 17 18 18 19 18 16 16 16 13 13 11 11 11 11 10 11 11 12 13 14 13 10 9 7 11 10 10 12 14 13 9
9 11 12 11 12 12 12 13 16 17 16 14 15 14 14 14 13 13 13 13 13 13 13 13 14 15 15 16 16 15 15 16 16 17 17 18 18 18 19 17 15 14 11 9 9 9 9 9 10 11 13 13 11 10 8 7 12 11 13 14 14 14 8
5 9 11 12 13 14 15 16 16 15 14 15 16 16 16 15 15 14 14 14 13 13 14 14 15 15 15 15 15 15 15 15 15 15 16 16 17 17 17 15 14 12 9 9 10 9 10 10 10 9 11 12 11 10 9 8 10 12 13 14 15 13 8
4 5 9 10 10 13 14 14 15 16 14 16 17 17 17 17 16 15 14 14 14 13 13 13 14 15 15 15 15 15 14 13 14 14 13 14 15 14 12 11 9 10 9 9 10 10 10 10 9 9 10 12 11 11 10 9 12 17 18 19 19 12 8
10 9 10 11 14 16 15 14 14 16 16 15 17 15 15 16 17 15 13 13 13 13 13 13 13 14 15 15 15 14 13 13 13 13 13 13 12 11 11 10 9 8 7 8 9 10 9 10 10 9 9 11 12 11 12 11 13 19 17 15 15 9 5
10 11 11 13 14 14 13 13 13 13 15 15 14 15 15 15 14 13 13 13 13 14 13 13 13 13 13 14 14 14 15 14 15 14 13 14 12 11 10 9 8 9 8 8 9 10 10 9 9 11 10 10 11 10 10 10 8 11 15 12 11 10 5
11 12 13 14 14 14 13 14 14 16 15 11 11 13 13 13 13 13 12 13 13 14 14 14 14 14 14 14 15 15 17 16 16 14 13 12 11 10 9 8 7 8 8 9 8 7 8 10 9 10 10 10 9 8 9 9 9 7 10 8 10 9 7
13 14 14 14 14 14 17 17 16 15 13 11 12 12 12 12 13 13 13 12 13 14 15 16 16 15 15 16 17 16 15 16 16 13 11 11 9 9 8 8 8 8 9 8 8 9 9 10 10 9 9 9 8 8 9 3 7 7 11 12 10 10 8
17 17 16 16 16 15 16 15 13 12 10 10 11 12 13 15 14 13 13 13 15 14 16 17 17 17 16 16 16 16 16 16 17 14 11 11 12 11 11 9 9 8 8 8 7 8 9 9 9 8 8 6 6 8 7 5 6 7 7 8 7 7 6
19 19 19 19 18 16 15 11 9 9 9 8 6 6 8 11 12 12 12 13 12 12 13 14 15 17 16 16 15 16 16 16 15 12 12 12 12 11 10 10 9 9 8 7 7 8 8 8 8 8 8 9 9 7 6 5 5 7 7 6 5 5 6
17 16 16 16 15 13 13 11 10 10 10 8 8 7 5 3 6 9 10 9 8 10 12 13 15 17 16 16 15 15 14 13 12 11 11 11 12 11 10 11 11 9 8 8 9 8 9 8 8 9 9 8 8 7 6 5 6 5 6 6 5 4 5
14 14 15 14 13 12 12 11 11 11 10 9 7 7 6 5 6 9 9 10 11 10 10 13 15 15 16 15 15 15 13 14 13 12 11 12 10 10 9 10 10 9 9 9 9 9 9 9 8 8 9 8 7 7 6 6 5 5 5 6 5 4 4
13 12 12 11 10 9 11 11 10 10 10 9 7 5 6 8 8 9 9 9 10 11 12 12 13 13 13 13 13 13 13 14 12 12 12 11 10 9 9 9 9 8 9 8 8 8 8 8 8 8 8 8 8 7 6 5 5 6 7 7 7 8 9
11 11 10 10 9 9 10 10 10 10 9 7 6 6 6 7 7 8 8 8 9 10 10 10 11 12 12 13 11 11 12 12 12 12 11 11 10 10 10 9 8 8 7 8 7 7 8 8 8 8 7 6 6 5 4 5 6 5 6 8 10 10 9
11 10 9 10 9 9 9 9 10 9 9 6 5 5 6 6 7 8 9 9 11 12 12 11 11 10 13 12 11 11 10 11 12 11 11 10 9 4 4 2 3 3 5 3 3 3 3 5 8 7 6 5 5 6 6 6 10 10 2 5 7 4 6
11 12 11 9 8 8 8 9 9 9 8 6 5 5 5 7 7 8 9 10 11 12 12 12 12 12 11 11 10 10 11 10 10 11 10 10 8 7 5 8 11 7 3 4 7 9 7 4 2 4 3 5 5 2 4 5 3 13 14 12 12 13 14
12 11 11 11 10 8 7 6 7 7 7 5 4 5 5 6 7 7 9 9 11 12 12 12 11 11 11 10 10 11 10 10 10 10 9 8 8 8 8 6 6 10 11 8 4 5 7 6 6 7 6 7 2 7 13 11 11 13 14 12 12 13 13
13 11 11 11 10 9 8 6 5 5 5 4 4 4 4 6 6 7 9 9 10 11 11 11 10 10 11 10 10 10 9 8 9 10 9 7 7 7 6 6 7 5 8 8 6 7 7 8 7 7 9 10 6 2 5 7 9 12 13 13 13 13 12
Wind_Direction
196 195 194 191 189 191 195 199 200 199 198 197 196 198 199 199 202 204 205 205 207 209 210 210 210 210 210 208 209 212 213 215 215 214 213 216 216 215 211 213 217 222 232 232 234 230 221 224 218 216 214 203 201 195 200 200 201 209 205 207 217 232 222
198 195 196 192 189 189 191 192 194 197 198 197 196 198 202 200 199 203 204 203 203 206 207 209 209 209 208 206 206 210 211 213 211 212 211 211 209 210 209 207 214 216 220 229 238 226 226 223 222 217 211 196 202 198 199 202 206 214 219 206 224 224 229
201 199 196 195 193 187 184 186 190 195 197 198 199 198 200 200 199 200 200 201 201 201 205 207 207 210 208 206 206 208 210 210 210 210 211 210 208 208 204 207 205 212 214 216 217 212 213 215 206 207 202 201 202 199 209 205 208 214 224 220 225 231 235
199 200 197 193 194 189 183 186 190 194 198 198 197 198 198 199 197 197 199 201 200 201 204 205 204 205 205 202 203 206 206 206 208 209 211 212 211 207 208 201 199 208 205 203 197 201 199 200 192 196 197 203 205 207 207 215 213 211 218 221 233 242 247
199 199 196 193 193 190 187 188 191 194 200 199 197 197 196 194 193 194 197 201 205 206 204 204 205 203 200 197 198 203 203 204 205 206 205 208 208 204 202 201 196 207 202 183 174 183 190 193 192 192 193 202 207 209 214 215 224 217 220 222 236 244 249
199 195 195 195 193 191 192 193 194 196 199 200 198 194 195 195 196 200 199 199 204 206 203 204 205 200 199 196 197 196 197 201 202 197 194 189 189 196 196 193 186 183 175 174 173 177 179 194 197 192 196 201 213 219 214 214 221 223 222 228 231 245 253
194 193 194 195 193 192 195 198 199 200 199 200 198 194 197 199 201 204 204 203 202 202 203 203 201 200 197 194 195 194 192 193 194 187 182 176 175 182 182 165 155 164 167 153 152 153 166 180 185 185 205 223 227 223 222 222 231 228 232 228 231 235 247
193 190 193 193 193 194 196 198 200 200 197 196 197 196 198 201 203 205 208 206 201 202 204 204 200 199 194 191 191 192 190 187 183 175 174 174 173 170 154 145 142 137 120 130 118 108 104 123 159 196 207 223 227 229 225 225 228 239 234 235 233 238 240
190 192 191 192 194 195 196 196 199 198 193 192 195 195 196 200 203 205 207 207 201 202 204 205 202 196 192 192 194 195 192 187 179 172 168 166 158 152 143 130 126 117 97 52 43 67 65 81 150 170 194 212 230 231 229 227 229 228 234 234 234 235 240
189 186 192 194 198 197 197 197 194 191 191 190 190 190 194 198 202 204 205 205 205 204 203 203 202 197 194 196 197 195 190 196 173 168 168 168 159 142 118 116 116 99 83 70 357 20 55 38 21 6 260 236 229 232 234 228 224 226 225 227 229 230 232
188 189 193 199 198 198 196 195 191 189 187 185 186 189 192 195 198 201 202 203 204 204 203 203 203 202 198 200 199 194 184 182 168 168 168 151 141 135 127 122 112 92 95 109 113 25 29 50 291 240 234 219 221 225 229 231 228 224 224 223 225 228 231
181 186 193 193 193 191 193 191 184 182 181 180 184 188 189 191 193 194 195 199 201 202 201 202 203 205 203 202 202 194 188 183 152 140 125 136 137 134 128 120 114 127 138 130 129 135 197 214 220 216 219 212 209 215 221 225 226 225 223 225 224 224 230
178 186 187 193 190 186 180 181 182 181 179 179 183 186 189 191 191 190 190 193 197 198 201 202 204 201 200 202 199 177 174 165 145 139 131 143 153 136 119 116 124 138 147 154 163 187 198 191 205 214 214 213 207 207 211 221 226 227 223 224 225 225 226
180 186 187 184 183 184 186 186 182 178 180 181 184 186 186 189 189 189 187 188 194 198 198 198 197 195 197 194 188 164 161 151 130 132 145 162 165 140 120 128 146 157 163 177 187 194 193 197 205 210 207 210 203 199 205 209 215 224 223 219 221 224 227
194 196 183 186 191 184 185 185 186 185 182 185 187 187 186 184 186 186 186 188 192 198 199 192 191 192 194 172 144 124 127 121 127 126 104 84 91 110 141 163 162 167 177 190 198 198 199 208 202 201 202 202 199 199 203 205 207 216 211 208 217 226 235
212 198 195 187 196 193 187 188 184 183 181 183 186 184 184 183 182 183 183 186 190 196 196 189 188 186 182 156 127 127 126 133 140 133 132 144 158 169 173 173 174 182 188 192 197 203 212 216 207 204 206 204 205 205 204 206 208 196 184 186 201 216 232
231 210 205 197 191 198 192 185 183 182 182 184 185 184 183 181 180 183 188 188 190 188 188 183 177 179 170 149 137 132 133 136 144 149 159 164 165 170 181 184 185 185 187 191 195 202 209 212 215 212 200 202 209 208 207 204 203 184 180 186 202 221 242
244 223 214 206 190 189 190 186 184 182 183 184 184 181 179 177 179 182 188 184 185 179 178 180 175 184 180 167 138 141 143 148 153 160 165 168 170 175 186 190 190 183 184 188 194 202 204 207 206 196 197 200 211 221 223 217 189 188 190 194 207 215 237
277 259 222 205 189 189 191 191 187 183 180 180 179 178 180 175 175 176 177 173 172 170 169 174 178 181 168 149 160 156 151 154 158 160 164 168 174 183 189 193 199 192 187 191 197 195 195 202 200 200 199 201 211 222 224 228 178 182 183 200 200 159 187
248 242 214 207 200 188 185 183 179 174 176 174 173 174 171 172 166 162 164 157 155 161 161 166 165 169 154 149 167 164 159 158 158 162 167 173 178 184 189 194 201 201 200 202 195 193 194 195 200 198 204 201 210 218 218 225 140 159 180 186 174 184 180
218 204 195 193 191 183 176 177 171 164 163 167 166 158 154 156 158 156 159 157 156 155 151 155 151 150 144 158 173 169 162 159 158 163 170 178 182 185 192 197 201 203 204 205 204 198 196 199 201 203 212 211 214 216 207 203 154 179 182 187 187 184 188
212 203 200 187 177 168 169 169 164 161 159 150 149 156 159 157 159 159 157 159 155 156 155 155 156 159 162 170 175 167 160 159 159 165 172 180 185 189 195 200 203 206 206 208 207 205 200 205 207 208 215 216 204 213 205 190 158 179 188 192 190 179 190
212 195 193 190 192 181 174 166 159 155 154 160 161 156 155 154 155 152 150 150 152 153 155 154 155 159 165 171 174 172 161 158 160 169 177 180 184 190 194 198 203 207 205 205 206 205 205 210 212 215 222 210 191 200 201 181 167 187 199 195 184 178 193
173 182 168 169 154 153 158 160 159 153 164 167 161 152 146 148 143 145 149 149 151 153 152 152 153 159 164 167 170 169 157 159 162 169 177 182 188 190 192 197 201 202 201 204 206 211 211 210 216 217 217 202 184 195 203 198 173 190 194 188 180 181 175
181 170 159 156 158 161 161 159 156 155 164 171 146 137 136 137 140 143 145 147 149 149 148 151 149 157 161 164 166 162 153 158 164 170 179 181 181 180 183 192 195 197 196 204 208 213 215 224 229 217 213 217 214 204 216 225 183 188 194 182 172 170 161
148 150 152 154 150 143 133 135 147 156 154 147 132 132 132 134 138 140 143 147 149 148 149 148 149 153 153 155 157 164 167 168 169 175 175 176 175 177 179 179 181 187 190 201 215 225 229 222 221 219 227 231 220 204 210 227 209 184 198 185 162 167 170
142 144 141 137 129 130 130 135 135 134 133 116 118 124 130 135 137 141 146 149 151 148 146 143 147 151 152 153 160 165 169 172 176 172 170 171 174 174 170 175 174 176 182 195 200 205 216 224 223 218 223 231 219 212 211 222 230 155 133 125 165 184 211
121 115 109 109 120 127 128 127 125 125 121 125 128 131 134 138 137 142 146 151 150 151 144 145 151 155 155 158 160 161 167 173 175 172 166 167 168 167 166 164 165 166 171 188 191 203 213 221 227 226 224 223 219 214 221 122 76 123 155 170 187 185 176
105 106 106 109 107 110 116 117 116 115 120 131 138 143 147 145 145 148 154 153 154 152 152 154 155 154 156 158 159 161 165 167 172 174 169 167 168 166 162 159 165 165 177 194 196 193 199 216 217 219 223 221 216 219 200 163 134 123 145 161 163 165 189
108 108 109 108 107 106 103 87 76 71 62 58 70 107 122 133 141 151 153 151 150 151 152 151 149 153 154 155 157 160 164 166 167 164 164 163 162 163 159 161 165 171 180 191 192 189 195 198 204 213 217 215 212 204 185 168 159 130 132 142 157 172 164
96 99 99 97 97 99 102 95 84 77 71 60 51 50 60 80 115 121 121 120 129 141 148 149 152 154 153 154 154 161 161 161 159 157 160 162 165 166 166 170 173 176 179 186 189 195 197 198 203 208 215 217 211 199 185 172 184 170 137 134 112 87 89
80 88 92 89 77 75 90 93 92 91 83 72 66 68 60 86 120 122 119 132 138 150 157 158 152 150 152 153 157 157 153 155 158 158 158 163 167 167 169 171 176 178 178 190 194 195 198 202 206 209 211 212 209 201 185 174 188 196 166 133 126 123 149
72 68 69 68 59 72 80 84 90 90 88 80 71 71 73 67 78 97 120 128 137 152 157 150 140 143 147 151 156 156 158 162 162 161 160 156 159 163 170 171 181 177 183 192 200 204 211 216 216 215 216 211 210 201 187 185 185 203 193 169 161 165 165
69 72 70 72 72 79 89 87 82 79 76 71 64 59 69 83 94 107 118 128 140 148 148 142 143 147 149 149 151 155 157 161 149 156 165 166 161 166 172 174 188 187 192 203 207 215 213 222 220 220 221 217 209 198 184 196 214 212 193 193 192 175 174
69 65 68 70 65 76 89 95 95 93 91 86 79 78 77 88 105 121 131 149 151 151 148 142 144 149 150 150 148 148 154 153 160 168 163 163 153 90 49 77 153 173 186 78 24 358 267 232 221 214 206 203 200 198 186 203 217 217 133 93 77 113 160
64 66 68 71 70 68 83 98 105 105 99 92 91 101 112 116 126 136 143 143 142 143 137 140 143 144 143 143 143 145 153 155 168 169 169 161 152 131 92 39 41 32 5 85 54 59 56 19 338 355 326 248 185 51 250 218 100 95 98 99 92 82 76
54 60 63 67 72 68 73 82 96 104 107 109 114 117 117 125 129 124 128 136 137 138 138 142 142 141 138 142 149 148 163 162 158 168 168 166 163 162 150 142 76 55 48 57 57 39 35 46 10 351 349 354 18 83 51 71 103 105 109 108 101 95 95
45 47 58 62 60 61 66 74 91 101 111 123 131 125 135 129 126 128 131 135 135 136 137 138 139 136 139 142 131 137 156 155 153 164 170 172 159 154 162 166 153 126 59 51 69 77 69 58 41 29 20 22 8 57 108 69 93 113 110 109 107 105 105